{"data":{"norad_id":61640,"epoch":"2026-05-24T22:48:12.119328Z","epoch_age_seconds":79052,"freshness":"FRESH","line1":"1 61640U 24191V   26144.95014027  .00000392  00000+0  23764-4 0  9998","line2":"2 61640  43.0036  83.4602 0001082 270.3410  89.7317 15.27576967 89193","mean_motion":15.27576967,"eccentricity":0.0001082,"inclination_deg":43.0036,"raan_deg":83.4602,"arg_perigee_deg":270.341,"mean_anomaly_deg":89.7317,"bstar":2.3764e-5,"rev_number":8919,"period_min":94.26693588003,"perigee_km":482.31579662954,"apogee_km":483.80055926605,"semimajor_km":6861.1951779478,"source":"CELESTRAK","updated_at":"2026-05-25T13:38:19.410719Z"}}